Stations météo

Publicité
Orleans, France (7249): Température de l'air & dewpoint: 10.01.2018 20:00:00 - 16.01.2018 20:00:00 (CET)Orleans, France (7249): Température de l'air 5cm: 10.01.2018 20:00:00 - 16.01.2018 20:00:00 (CET)Orleans, France (7249): Température de l'air -20cm & Température de l'air -100cm: 10.01.2018 20:00:00 - 16.01.2018 20:00:00 (CET)Orleans, France (7249): Vitesse du vent & gusts: 10.01.2018 20:00:00 - 16.01.2018 20:00:00 (CET)Orleans, France (7249): Direction du vent: 10.01.2018 20:00:00 - 16.01.2018 20:00:00 (CET)Orleans, France (7249): reduced air pressure: 10.01.2018 20:00:00 - 16.01.2018 20:00:00 (CET)Orleans, France (7249): visibility: 10.01.2018 20:00:00 - 16.01.2018 20:00:00 (CET)Orleans, France (7249): Ensoleillement: 10.01.2018 20:00:00 - 16.01.2018 20:00:00 (CET)Orleans, France (7249): Quantités de précipitations: 10.01.2018 20:00:00 - 16.01.2018 20:00:00 (CET)
Date & Time tt [°C] td [°C] tt 5cm [°C] tt -20cm [°C] tt -100cm [°C] ff [km/h] ff [knt] fx [km/h] fx [knt] dd ppp [hPa] vv [km] sd [min] rr [mm]
16.01.2018 20:00:00 6,1 5,1 4,1 8,1 9,4 18 10 30 16 WSW 1004,7 10 0 0,2
16.01.2018 19:00:00 6,8 5,4 4,7 8,0 9,3 18 10 28 15 W 1004,7 6 0 0,6
16.01.2018 18:00:00 6,9 4,9 4,8 8,0 9,4 21 11 59 32 W 1004,8 10 1 0,2
16.01.2018 17:00:00 9,1 3,7 7,3 7,9 9,3 31 17 59 32 W 1004,7 10 47 0,0
16.01.2018 16:00:00 10,6 4,7 8,9 7,9 9,4 43 23 67 36 W 1004,1 20 39 0,0
16.01.2018 15:00:00 10,5 6,3 9,4 7,9 9,4 37 20 66 36 WSW 1004,5 10 36 0,0
16.01.2018 14:00:00 10,2 6,5 8,6 7,9 9,4 41 22 61 33 WSW 1005,4 60 17 -
16.01.2018 13:00:00 10,5 7,0 7,0 7,9 9,4 41 22 59 32 W 1006,2 10 45 0,2
16.01.2018 12:00:00 8,9 6,2 7,0 7,8 9,4 41 22 60 32 W 1006,6 10 7 0,0
16.01.2018 11:00:00 9,6 7,5 7,1 7,8 9,4 31 17 61 33 W 1006,4 10 16 0,4
16.01.2018 10:00:00 8,9 7,8 6,8 7,8 9,4 29 16 64 35 W 1005,8 10 5 1,4
16.01.2018 09:00:00 9,1 7,5 7,0 7,8 9,4 31 17 50 27 WSW 1004,5 10 0 0,0
16.01.2018 08:00:00 8,7 8,1 6,8 7,8 9,4 31 17 52 28 W 1004,3 6 0 0,4
16.01.2018 07:00:00 8,4 7,6 6,8 7,7 9,4 29 16 49 27 SW 1004,1 10 0 0,4
16.01.2018 06:00:00 8,9 6,7 7,0 7,7 9,4 31 17 58 31 WSW 1004,2 10 0 0,0
16.01.2018 05:00:00 9,0 6,8 7,1 7,7 9,4 39 21 62 34 W 1004,4 10 0 0,0
16.01.2018 04:00:00 9,1 7,5 7,0 7,6 9,4 36 19 55 30 WSW 1004,3 15 0 0,0
16.01.2018 03:00:00 9,2 7,8 7,1 7,6 9,4 31 17 56 31 WSW 1004,4 10 0 0,4
16.01.2018 02:00:00 9,4 8,5 7,6 7,6 9,4 41 22 59 32 WSW 1004,0 8 0 0,0
16.01.2018 01:00:00 9,0 7,9 7,1 7,5 9,4 31 17 53 28 SW 1004,8 10 0 0,0
16.01.2018 00:00:00 9,2 7,8 7,1 7,5 9,4 31 17 56 30 WSW 1005,2 10 0 1,2
15.01.2018 23:00:00 9,2 8,3 6,9 7,4 9,4 28 15 39 21 SW 1005,3 10 0 0,2
15.01.2018 22:00:00 8,8 7,4 6,6 7,4 9,4 24 13 48 26 WSW 1005,2 10 0 0,0
15.01.2018 21:00:00 9,6 8,0 7,7 7,4 9,4 34 18 53 28 W 1005,3 10 0 1,6
15.01.2018 20:00:00 9,5 8,6 7,3 7,3 9,4 28 15 50 27 SW 1004,5 10 0 0,0
15.01.2018 19:00:00 9,2 8,7 7,4 7,3 9,5 36 19 55 30 SW 1004,0 53 0 0,6
15.01.2018 18:00:00 8,7 8,1 6,8 7,3 9,4 44 24 67 36 SW 1004,0 7 0 0,0
15.01.2018 17:00:00 8,1 7,5 6,3 7,2 9,5 46 25 71 38 SW 1004,2 5 0 1,0
15.01.2018 16:00:00 7,8 6,7 5,9 7,2 9,5 52 28 70 38 SSW 1005,2 6 0 0,2
15.01.2018 15:00:00 7,3 6,2 5,7 7,2 9,5 41 22 66 36 SSW 1006,5 10 0 2,0
15.01.2018 14:00:00 7,2 5,8 5,4 7,2 9,5 37 20 59 32 SSW 1008,8 10 0 0,8
15.01.2018 13:00:00 6,9 5,4 5,6 7,2 9,5 34 18 60 32 SSW 1011,3 10 0 0,2
15.01.2018 12:00:00 6,9 5,0 5,3 7,2 9,5 31 17 51 28 SSW 1013,1 10 0 0,0
15.01.2018 11:00:00 6,3 4,8 5,1 7,2 9,5 29 16 47 26 SSW 1014,4 10 0 0,0
15.01.2018 10:00:00 6,1 4,3 4,2 7,2 9,5 34 18 51 27 SSW 1014,9 10 0 0,0
15.01.2018 09:00:00 5,7 3,7 3,8 7,2 9,5 26 14 42 23 SSW 1015,4 10 0 0,0
15.01.2018 08:00:00 5,8 4,4 4,2 7,2 9,5 22 12 34 18 SSW 1016,6 10 0 0,0
15.01.2018 07:00:00 5,5 4,9 3,9 7,2 9,5 21 11 30 16 SW 1017,3 10 0 0,0
15.01.2018 06:00:00 4,8 4,7 3,5 7,2 9,5 17 9 25 13 SW 1017,0 11 0 0,0
15.01.2018 05:00:00 4,4 4,3 2,3 7,2 9,5 15 8 21 11 SW 1017,7 8 0 0,0
15.01.2018 04:00:00 3,1 3,1 1,3 7,2 9,5 9 5 13 7 S 1018,5 4,9 0 0,0
15.01.2018 03:00:00 2,0 2,0 0,7 7,2 9,5 5 3 9 5 SSW 1019,1 4,6 0 0,0
15.01.2018 02:00:00 1,5 1,4 0,2 7,3 9,5 5 3 7 4 S 1019,7 0,7 0 0,0
15.01.2018 01:00:00 1,2 1,1 0,2 7,3 9,5 0 0 7 4 N 1020,3 0,5 0 0,0
15.01.2018 00:00:00 2,1 2,0 1,0 7,3 9,5 3 2 11 6 SSW 1020,2 0,1 0 0,0
14.01.2018 23:00:00 2,6 2,5 1,8 7,3 9,5 5 3 10 5 SSE 1020,0 0,3 0 0,0
14.01.2018 22:00:00 3,9 3,8 1,6 7,3 9,5 2 1 4 2 - 1019,9 0,3 0 0,0
14.01.2018 21:00:00 3,6 3,3 -0,6 7,3 9,5 2 1 11 6 NNE 1019,6 5 0 0,0
14.01.2018 20:00:00 1,0 0,4 -2,5 7,3 9,5 8 4 10 5 NNW 1019,9 1,7 0 0,0
14.01.2018 19:00:00 3,3 2,7 -1,8 7,3 9,5 4 2 8 4 NNE 1019,2 6 0 0,0
14.01.2018 18:00:00 4,9 3,9 0,9 7,3 9,5 4 2 8 5 - 1018,6 10 0 0,0
14.01.2018 17:00:00 5,7 4,7 4,9 7,3 9,5 2 1 9 5 - 1018,1 10 0 0,0
14.01.2018 16:00:00 5,7 4,5 5,7 7,2 9,5 2 1 6 4 WSW 1017,9 7 0 0,0
14.01.2018 15:00:00 5,5 4,3 5,6 7,3 9,5 4 2 11 6 - 1017,5 6 0 0,0
14.01.2018 14:00:00 5,5 4,1 5,9 7,3 9,5 9 5 13 7 W 1017,4 7 0 0,0
14.01.2018 13:00:00 5,6 3,6 6,6 7,3 9,5 0 0 6 4 N 1017,5 8 31 0,0
14.01.2018 12:00:00 3,3 2,3 3,1 7,4 9,5 4 2 6 4 - 1017,7 5 2 0,0
14.01.2018 11:00:00 1,6 1,3 0,1 7,4 9,5 2 1 6 4 - 1017,5 3,7 11 0,0
14.01.2018 10:00:00 0,8 0,5 -2,4 7,4 9,5 5 3 6 4 NE 1017,2 2,6 37 0,0
14.01.2018 09:00:00 -0,2 -0,5 -2,3 7,5 9,5 4 2 9 5 E 1016,6 2,5 0 0,0
14.01.2018 08:00:00 0,0 -0,3 -2,0 7,5 9,6 5 3 8 5 ENE 1016,2 3,7 0 0,0
14.01.2018 07:00:00 0,2 -0,1 -2,1 7,6 9,6 5 3 11 6 E 1015,8 3,6 0 0,0
14.01.2018 06:00:00 0,0 -0,3 -2,2 7,6 9,5 8 4 9 5 ENE 1015,7 3,1 0 0,0
14.01.2018 05:00:00 0,5 0,2 -1,5 7,6 9,5 5 3 9 5 NE 1015,5 3,4 0 0,0
14.01.2018 04:00:00 1,1 0,8 -0,5 7,7 9,6 5 3 13 7 E 1015,3 3,6 0 0,0
14.01.2018 03:00:00 1,2 0,9 0,3 7,7 9,6 9 5 11 6 NE 1015,3 1,8 0 0,0
14.01.2018 02:00:00 1,4 1,0 0,4 7,7 9,6 8 4 11 6 ENE 1015,4 3,8 0 0,0
14.01.2018 01:00:00 1,7 1,3 0,1 7,7 9,6 7 4 11 6 E 1015,5 3,4 0 0,0
14.01.2018 00:00:00 1,7 1,3 0,3 7,8 9,6 8 4 13 7 E 1015,9 4,4 0 0,0
13.01.2018 23:00:00 2,0 1,4 0,8 7,8 9,6 9 5 15 8 ENE 1015,9 4,7 0 0,0
13.01.2018 22:00:00 2,0 1,4 0,2 7,8 9,6 9 5 14 8 ENE 1016,1 4,4 0 0,0
13.01.2018 21:00:00 1,9 1,2 0,2 7,8 9,6 5 3 9 5 NE 1016,5 6 0 0,0
13.01.2018 20:00:00 2,2 1,2 0,3 7,9 9,6 8 4 16 9 ENE 1016,6 7 0 0,0
13.01.2018 19:00:00 2,6 1,0 1,1 7,9 9,6 13 7 23 13 E 1017,0 10 0 0,0
13.01.2018 18:00:00 3,1 1,5 2,1 7,9 9,6 13 7 25 13 E 1017,3 9 0 0,0
13.01.2018 17:00:00 2,9 1,6 2,2 7,9 9,6 18 10 25 14 E 1017,3 9 0 0,0
13.01.2018 16:00:00 3,5 2,0 2,8 7,9 9,6 18 10 29 15 E 1017,4 10 0 0,0
13.01.2018 15:00:00 3,8 2,6 3,1 7,9 9,6 16 9 26 14 E 1017,7 7 0 0,0
13.01.2018 14:00:00 3,3 2,9 3,0 7,9 9,6 16 9 22 12 E 1018,5 7 0 0,0
13.01.2018 13:00:00 3,5 3,2 3,5 7,9 9,6 15 8 23 13 E 1019,2 5 0 0,0
13.01.2018 12:00:00 3,6 3,5 3,1 8,0 9,6 16 9 24 13 ESE 1019,8 6 0 0,0
13.01.2018 11:00:00 3,4 3,4 2,8 8,0 9,6 13 7 22 12 ESE 1020,5 4,8 0 0,0
13.01.2018 10:00:00 3,0 3,0 1,8 8,0 9,6 9 5 24 13 ESE 1020,8 2,8 0 0,0
13.01.2018 09:00:00 2,3 2,3 1,3 8,0 9,6 13 7 25 13 ESE 1020,9 0,6 0 0,0
13.01.2018 08:00:00 1,9 1,9 1,3 8,1 9,6 18 10 26 14 ESE 1021,2 2,5 0 0,0
13.01.2018 07:00:00 2,5 2,4 1,9 8,1 9,6 13 7 21 12 ESE 1021,2 0,6 0 0,0
13.01.2018 06:00:00 2,8 2,7 2,0 8,1 9,6 11 6 19 10 ESE 1021,7 1,2 0 0,0
13.01.2018 05:00:00 3,2 3,1 2,3 8,2 9,6 13 7 21 11 ESE 1021,9 0,7 0 0,0
13.01.2018 04:00:00 3,7 3,6 2,9 8,2 9,6 13 7 23 12 SE 1022,7 0,7 0 0,0
13.01.2018 03:00:00 3,7 3,6 2,4 8,2 9,6 13 7 19 10 ESE 1022,9 0,6 0 0,0
13.01.2018 02:00:00 3,4 3,3 -0,3 8,2 9,6 9 5 16 8 ESE 1023,6 0,5 0 0,0
13.01.2018 01:00:00 3,2 2,9 -1,1 8,3 9,6 9 5 11 6 E 1024,1 1,5 0 0,0
13.01.2018 00:00:00 3,2 2,8 -0,2 8,3 9,6 11 6 13 7 E 1024,2 0,5 0 0,0
12.01.2018 23:00:00 4,9 4,5 3,5 8,3 9,6 8 4 9 5 NE 1024,7 2,9 0 0,0
12.01.2018 22:00:00 5,0 4,3 3,6 8,3 9,6 0 0 5 3 N 1025,5 5 0 0,0
12.01.2018 21:00:00 5,4 4,7 3,9 8,3 9,6 4 2 12 6 - 1025,5 5 0 0,0
12.01.2018 20:00:00 5,5 4,8 4,5 8,3 9,6 9 5 16 8 NNE 1025,4 6 0 0,0
12.01.2018 19:00:00 5,5 4,6 4,3 8,3 9,6 5 3 10 5 NNW 1025,6 6 0 0,0
12.01.2018 18:00:00 5,7 4,5 4,3 8,3 9,6 4 2 6 3 NNW 1025,5 7 0 0,0
12.01.2018 17:00:00 5,9 4,2 5,2 8,3 9,6 2 1 11 6 - 1025,3 8 0 0,0
12.01.2018 16:00:00 6,0 4,2 5,2 8,3 9,6 5 3 11 6 W 1025,7 10 0 0,0
12.01.2018 15:00:00 6,4 4,2 6,1 8,2 9,6 0 0 13 7 N 1025,6 10 0 0,0
12.01.2018 14:00:00 6,0 4,5 5,9 8,2 9,6 9 5 19 10 E 1025,5 8 0 0,0
12.01.2018 13:00:00 5,8 4,9 5,8 8,2 9,6 9 5 22 12 E 1025,8 8 0 0,0
12.01.2018 12:00:00 5,6 5,0 5,7 8,2 9,6 11 6 21 11 NE 1026,2 7 0 0,0
12.01.2018 11:00:00 5,3 4,9 5,1 8,3 9,6 15 8 19 11 NNE 1026,6 5 0 0,0
12.01.2018 10:00:00 5,1 4,7 4,1 8,3 9,6 13 7 19 10 N 1026,2 6 0 0,0
12.01.2018 09:00:00 4,8 4,5 4,0 8,3 9,6 13 7 18 10 N 1025,9 5 0 0,0
12.01.2018 08:00:00 4,7 4,4 4,0 8,3 9,6 11 6 19 10 N 1025,8 6 0 0,0
12.01.2018 07:00:00 4,7 4,4 4,0 8,4 9,6 11 6 18 10 N 1025,3 3,8 0 0,0
12.01.2018 06:00:00 4,7 4,4 3,9 8,4 9,6 13 7 21 11 N 1025,0 3,9 0 0,0
12.01.2018 05:00:00 4,7 4,3 3,9 8,4 9,6 16 9 22 12 NNW 1024,8 5 0 0,0
12.01.2018 04:00:00 5,0 4,4 4,2 8,4 9,6 13 7 21 11 N 1024,4 6 0 0,0
12.01.2018 03:00:00 5,1 4,5 4,2 8,4 9,6 15 8 23 12 NNW 1024,2 9 0 0,0
12.01.2018 02:00:00 5,0 4,6 4,1 8,4 9,6 15 8 26 14 NNW 1023,8 7 0 0,0
12.01.2018 01:00:00 5,0 4,4 4,2 8,4 9,6 15 8 25 13 N 1023,7 9 0 0,0
12.01.2018 00:00:00 5,1 4,7 4,4 8,4 9,6 18 10 27 15 N 1023,4 4,1 0 0,0
11.01.2018 23:00:00 5,6 4,9 4,8 8,4 9,6 21 11 29 16 N 1022,9 7 0 0,0
11.01.2018 22:00:00 6,2 5,2 4,8 8,4 9,6 16 9 23 12 N 1022,2 10 0 0,0
11.01.2018 21:00:00 6,2 5,3 4,9 8,4 9,6 9 5 21 12 N 1021,8 9 0 0,0
11.01.2018 20:00:00 6,7 5,8 5,7 8,4 9,6 13 7 24 13 N 1021,0 10 0 0,0
11.01.2018 19:00:00 7,4 6,5 5,8 8,4 9,6 15 8 22 12 N 1019,9 8 0 0,0
11.01.2018 18:00:00 7,4 6,5 5,9 8,3 9,6 8 5 14 8 N 1019,2 17 0 0,0
11.01.2018 17:00:00 7,7 6,8 6,6 8,3 9,6 12 6 22 12 NNE 1018,6 16 0 0,0
11.01.2018 16:00:00 8,1 7,0 7,5 8,3 9,6 9 5 27 14 N 1017,6 10 - 0,0
11.01.2018 15:00:00 7,9 6,8 7,6 8,3 9,6 11 6 16 9 N 1016,8 10 0 0,0
11.01.2018 14:00:00 8,2 7,0 8,5 8,2 9,6 11 6 16 9 NNW 1016,1 10 1 0,0
11.01.2018 13:00:00 8,0 7,1 7,1 8,2 9,6 7 4 11 6 W 1015,6 17 0 0,0
11.01.2018 12:00:00 7,4 7,0 6,6 8,2 9,6 8 4 11 6 W 1015,5 10 0 0,0
11.01.2018 11:00:00 6,9 6,6 6,0 8,3 9,6 4 2 8 4 S 1014,8 9 0 0,0
11.01.2018 10:00:00 6,5 6,2 5,2 8,3 9,6 5 3 10 5 SSE 1013,8 7 0 0,2
11.01.2018 09:00:00 6,1 5,8 5,1 8,3 9,6 7 4 13 7 SE 1012,7 7 0 0,2
11.01.2018 08:00:00 6,2 5,6 5,0 8,3 9,6 8 4 13 7 ESE 1011,8 8 0 0,4
11.01.2018 07:00:00 6,2 5,5 4,9 8,3 9,6 8 4 14 8 SE 1010,7 10 0 0,0
11.01.2018 06:00:00 6,3 5,4 4,5 8,3 9,6 9 5 22 12 SSE 1010,2 10 0 0,0
11.01.2018 05:00:00 6,2 5,3 4,2 8,3 9,6 13 7 18 10 SSE 1009,6 60 0 0,0
11.01.2018 04:00:00 5,9 5,3 3,9 8,4 9,6 11 6 21 12 SSE 1009,4 10 0 0,0
11.01.2018 03:00:00 5,7 5,3 3,9 8,4 9,7 9 5 18 10 SE 1009,2 10 0 0,0
11.01.2018 02:00:00 5,3 5,0 3,6 8,4 9,7 11 6 20 11 SSE 1009,0 18 0 0,0
11.01.2018 01:00:00 4,7 4,4 2,5 8,4 9,6 13 7 20 11 SSE 1009,2 9 0 0,0
11.01.2018 00:00:00 4,9 4,6 1,5 8,4 9,6 11 6 16 9 SSE 1009,2 10 0 0,0
10.01.2018 23:00:00 5,7 5,3 1,7 8,4 9,7 11 6 16 9 S 1009,4 10 0 0,0
10.01.2018 22:00:00 5,9 5,3 2,6 8,4 9,7 11 6 16 9 S 1009,2 10 0 0,0
10.01.2018 21:00:00 6,5 5,6 3,5 8,4 9,7 9 5 14 8 S 1009,2 10 0 0,0
10.01.2018 20:00:00 7,5 6,9 5,2 8,4 9,6 9 5 14 8 S 1009,0 10 0 0,0

tt = Température de l'air
td = dewpoint
tt 5cm = Température de l'air 5cm
tt -20cm = Température de l'air -20cm
tt -100cm = Température de l'air -100cm
ff = Vitesse du vent
fx = gusts
dd = Direction du vent
ppp = reduced air pressure
vv = visibility
sd = Ensoleillement
rr = Quantités de précipitations

stations d'obs. à proximité